TimeEDT,TemperatureF,Dew PointF,Humidity,Sea Level PressureIn,VisibilityMPH,Wind Direction,Wind SpeedMPH,Gust SpeedMPH,PrecipitationIn,Events,Conditions,WindDirDegrees,DateUTC
12:53 AM,75.0,72.0,90,29.88,10.0,Calm,Calm,-,N/A,,Partly Cloudy,0,2013-09-23 04:53:00
1:53 AM,73.9,72.0,93,29.87,10.0,Calm,Calm,-,N/A,,Clear,0,2013-09-23 05:53:00
2:53 AM,73.9,71.1,91,29.87,7.0,Calm,Calm,-,N/A,,Clear,0,2013-09-23 06:53:00
3:53 AM,72.0,71.1,97,29.86,6.0,Calm,Calm,-,N/A,,Clear,0,2013-09-23 07:53:00
4:53 AM,72.0,71.1,97,29.87,8.0,Calm,Calm,-,N/A,,Clear,0,2013-09-23 08:53:00
5:53 AM,71.1,71.1,100,29.89,6.0,Calm,Calm,-,N/A,,Clear,0,2013-09-23 09:53:00
6:53 AM,71.1,71.1,100,29.90,6.0,Calm,Calm,-,N/A,,Clear,0,2013-09-23 10:53:00
7:53 AM,72.0,72.0,100,29.91,7.0,Calm,Calm,-,N/A,,Partly Cloudy,0,2013-09-23 11:53:00
8:53 AM,78.1,75.0,90,29.93,9.0,Calm,Calm,-,N/A,,Clear,0,2013-09-23 12:53:00
9:53 AM,82.0,73.0,74,29.94,10.0,SSE,3.5,-,N/A,,Clear,150,2013-09-23 13:53:00
10:53 AM,84.0,73.0,69,29.94,9.0,Calm,Calm,-,N/A,,Scattered Clouds,0,2013-09-23 14:53:00
11:10 AM,82.4,73.4,74,29.94,10.0,SE,3.5,-,N/A,,Mostly Cloudy,130,2013-09-23 15:10:00
11:43 AM,84.2,71.6,66,29.94,10.0,ESE,4.6,-,N/A,,Mostly Cloudy,110,2013-09-23 15:43:00
11:53 AM,84.0,73.0,69,29.94,10.0,ESE,6.9,-,N/A,,Mostly Cloudy,120,2013-09-23 15:53:00
12:53 PM,84.0,73.0,69,29.93,10.0,East,6.9,-,N/A,,Mostly Cloudy,100,2013-09-23 16:53:00
1:53 PM,82.9,73.0,72,29.92,10.0,SE,12.7,-,0.00,Rain,Rain,130,2013-09-23 17:53:00
2:07 PM,77.0,73.4,89,29.93,2.5,SSE,12.7,25.3,0.06,Rain,Light Rain,160,2013-09-23 18:07:00
2:14 PM,75.2,73.4,94,29.94,10.0,SSW,9.2,20.7,0.06,,Overcast,210,2013-09-23 18:14:00
2:19 PM,75.2,73.4,94,29.96,0.8,WSW,5.8,-,0.18,Rain,Rain,250,2013-09-23 18:19:00
2:23 PM,75.2,73.4,94,29.96,0.2,SW,3.5,-,0.31,Fog-Rain,Heavy Rain,230,2013-09-23 18:23:00
2:32 PM,75.2,73.4,94,29.95,0.2,Calm,Calm,-,0.71,Fog-Rain,Heavy Rain,0,2013-09-23 18:32:00
2:45 PM,75.2,73.4,94,29.95,1.0,Calm,Calm,-,0.91,Rain,Light Rain,0,2013-09-23 18:45:00
2:48 PM,75.2,73.4,94,29.95,4.0,East,3.5,-,0.91,Rain,Light Rain,80,2013-09-23 18:48:00
2:53 PM,75.0,73.9,96,29.95,9.0,ENE,3.5,-,0.91,,Overcast,60,2013-09-23 18:53:00
3:05 PM,75.2,73.4,94,29.94,9.0,ENE,4.6,-,N/A,,Overcast,70,2013-09-23 19:05:00
3:13 PM,75.2,73.4,94,29.94,8.0,NE,3.5,-,N/A,,Overcast,50,2013-09-23 19:13:00
3:22 PM,75.2,73.4,94,29.94,8.0,Calm,Calm,-,0.00,Rain,Light Rain,0,2013-09-23 19:22:00
3:53 PM,75.0,73.9,96,29.94,6.0,ENE,3.5,-,0.02,Rain,Light Rain,70,2013-09-23 19:53:00
4:53 PM,75.9,75.0,97,29.94,5.0,NNE,4.6,-,0.05,Rain,Light Rain,20,2013-09-23 20:53:00
5:53 PM,75.0,73.9,96,29.95,9.0,East,4.6,-,0.00,,Overcast,90,2013-09-23 21:53:00
6:14 PM,75.2,73.4,94,29.96,9.0,ESE,4.6,-,N/A,,Overcast,110,2013-09-23 22:14:00
6:23 PM,75.2,73.4,94,29.97,1.5,South,10.4,-,0.12,Rain,Light Rain,180,2013-09-23 22:23:00
6:26 PM,75.2,73.4,94,29.97,0.5,SSE,11.5,-,0.27,Fog-Rain,Heavy Rain,150,2013-09-23 22:26:00
6:35 PM,73.4,73.4,100,29.97,2.0,SSE,6.9,-,0.45,Rain,Heavy Rain,150,2013-09-23 22:35:00
6:42 PM,73.4,73.4,100,29.97,2.0,SSE,4.6,-,0.48,Rain,Heavy Rain,160,2013-09-23 22:42:00
6:53 PM,73.0,73.0,100,29.96,2.0,Calm,Calm,-,0.50,Rain,Rain,0,2013-09-23 22:53:00
7:01 PM,73.4,73.4,100,29.97,2.0,Calm,Calm,-,0.02,Rain,Rain,0,2013-09-23 23:01:00
7:53 PM,73.0,73.0,100,29.97,8.0,East,5.8,-,0.08,Rain,Light Rain,80,2013-09-23 23:53:00
8:53 PM,73.0,73.0,100,29.99,8.0,Calm,Calm,-,0.02,Rain,Light Rain,0,2013-09-24 00:53:00
9:53 PM,75.0,75.0,100,29.99,9.0,East,3.5,-,0.01,Rain,Light Rain,100,2013-09-24 01:53:00
10:53 PM,73.9,73.9,100,29.99,10.0,Calm,Calm,-,0.00,,Scattered Clouds,0,2013-09-24 02:53:00
11:53 PM,75.0,75.0,100,29.98,10.0,SE,4.6,-,0.00,Rain,Light Rain,140,2013-09-24 03:53:00